GW3496 Weather Reports


time (UTC)temp
C
wind
direction
speed
KPH
gust
KPH
rain 1hr
cm
rain 24hr
cm
rain mn
cm
humidity
%
barometer
mb
20260506223027 21 180 17.7 29.0 0.00 0.23 0.23 74 1006.0
20260506221529 22 218 20.9 41.8 0.00 0.23 0.23 73 1006.0
20260506220032 22 171 12.9 35.4 0.00 0.23 0.23 74 1006.0
20260506214529 22 246 14.5 35.4 0.00 0.23 0.23 73 1005.9
20260506213030 21 214 12.9 32.2 0.00 0.23 0.23 74 1006.2
20260506211529 21 201 19.3 30.6 0.00 0.23 0.23 74 1006.0
20260506210030 21 234 9.7 24.1 0.00 0.23 0.23 75 1006.1
20260506204534 21 196 17.7 33.8 0.00 0.23 0.23 75 1005.9
20260506203034 21 199 14.5 32.2 0.00 0.23 0.23 76 1006.1
20260506201530 20 211 19.3 35.4 0.00 0.23 0.23 76 1006.0
20260506200044 20 240 16.1 29.0 0.00 0.23 0.23 78 1006.0
20260506194530 19 196 14.5 30.6 0.00 0.23 0.23 79 1006.0
20260506193031 19 220 17.7 29.0 0.00 0.23 0.23 80 1006.1
20260506191533 19 213 17.7 30.6 0.00 0.23 0.23 80 1006.6
20260506190037 19 190 14.5 25.7 0.00 0.23 0.23 80 1006.7
20260506184538 19 157 9.7 22.5 0.00 0.23 0.23 80 1007.0
20260506183034 19 196 16.1 35.4 0.00 0.23 0.23 79 1006.8
20260506181534 19 186 9.7 30.6 0.00 0.23 0.23 80 1007.6
20260506180031 18 186 9.7 24.1 0.00 0.23 0.23 80 1007.2
20260506174533 18 161 12.9 24.1 0.00 0.23 0.23 81 1007.3
20260506173037 18 213 14.5 33.8 0.00 0.23 0.23 82 1007.5
20260506171536 18 215 12.9 37.0 0.00 0.23 0.23 82 1007.6
20260506170035 18 124 17.7 37.0 0.00 0.23 0.23 83 1007.6
20260506164532 18 201 14.5 27.4 0.00 0.23 0.23 84 1008.0
20260506163053 17 194 20.9 35.4 0.00 0.23 0.23 85 1007.8
20260506161530 17 203 22.5 40.2 0.00 0.23 0.23 86 1008.2
20260506160036 17 202 11.3 29.0 0.00 0.23 0.23 88 1008.2
20260506154538 16 184 12.9 29.0 0.05 0.23 0.23 88 1008.1
20260506153033 16 144 12.9 29.0 0.05 0.23 0.23 88 1008.1
20260506151537 16 228 16.1 27.4 0.20 0.23 0.23 88 1007.9
20260506150032 16 203 16.1 29.0 0.20 0.23 0.23 88 1008.1
20260506144529 16 186 20.9 38.6 0.15 0.18 0.18 87 1008.3
20260506143033 17 151 14.5 24.1 0.15 0.18 0.18 85 1008.7
20260506141533 17 197 16.1 24.1 0.03 0.03 0.03 84 1008.7
20260506140036 17 226 9.7 19.3 0.03 0.03 0.03 83 1008.5
20260506134540 17 130 12.9 20.9 0.03 0.03 0.03 82 1008.2
20260506133033 17 235 9.7 22.5 0.03 0.03 0.03 81 1008.3
20260506131537 17 203 14.5 27.4 0.00 0.00 0.00 78 1008.5
20260506130033 17 196 14.5 22.5 0.00 0.00 0.00 77 1008.6
20260506124543 18 211 9.7 22.5 0.00 0.00 0.00 75 1008.5
20260506123040 18 215 12.9 25.7 0.00 0.00 0.00 73 1008.2
20260506121557 18 205 12.9 32.2 0.00 0.00 0.00 72 1008.3
20260506120049 18 210 12.9 24.1 0.00 0.00 0.00 71 1008.4
20260506114542 18 235 20.9 37.0 0.00 0.00 0.00 72 1008.4
20260506113040 18 247 16.1 29.0 0.00 0.00 0.00 71 1008.4
20260506111545 18 202 17.7 30.6 0.00 0.00 0.00 71 1008.2
20260506110047 18 224 16.1 29.0 0.00 0.00 0.00 72 1008.0
20260506104543 18 202 12.9 25.7 0.00 0.00 0.00 72 1007.9
20260506103042 18 197 17.7 25.7 0.00 0.00 0.00 72 1008.2
20260506101554 18 201 16.1 29.0 0.00 0.00 0.00 71 1008.2
20260506100047 18 225 12.9 27.4 0.00 0.00 0.00 71 1008.1
20260506094543 18 207 12.9 25.7 0.00 0.00 0.00 71 1008.0
20260506093046 18 173 12.9 20.9 0.00 0.00 0.00 70 1007.9
20260506091538 18 163 11.3 20.9 0.00 0.00 0.00 70 1008.0
20260506084557 18 196 12.9 29.0 0.00 0.00 0.00 69 1008.2
20260506083045 18 208 11.3 32.2 0.00 0.00 0.00 68 1008.3
20260506081548 19 171 16.1 30.6 0.00 0.00 0.00 68 1008.2
20260506073050 20 232 16.1 24.1 0.00 0.00 0.00 66 1008.3
20260506071552 20 151 17.7 29.0 0.00 0.00 0.00 65 1008.2
20260506061549 21 160 8.0 29.0 0.00 0.00 0.00 61 1008.8
20260506044531 22 186 14.5 38.6 0.00 0.00 0.00 56 1009.1
20260506043028 22 171 17.7 38.6 0.00 0.00 0.00 55 1008.7
20260506041544 22 183 17.7 41.8 0.00 0.00 0.00 54 1009.0
20260506040029 22 176 12.9 40.2 0.00 0.00 0.00 53 1009.0
20260506034543 23 197 20.9 40.2 0.00 0.00 0.00 52 1009.0
20260506033029 23 178 9.7 25.7 0.00 0.00 0.00 52 1009.0
20260506031529 22 157 11.3 29.0 0.00 0.00 0.00 52 1009.0
20260506030028 22 100 14.5 25.7 0.00 0.00 0.00 51 1009.0
20260506024529 23 193 16.1 29.0 0.00 0.00 0.00 50 1009.1
20260506023030 23 213 9.7 20.9 0.00 0.00 0.00 49 1009.3
20260506021529 23 134 9.7 25.7 0.00 0.00 0.00 48 1009.2
20260506020028 23 163 4.8 24.1 0.00 0.00 0.00 46 1009.3
20260506014528 24 196 11.3 20.9 0.00 0.00 0.00 45 1009.2
20260506013041 24 174 8.0 20.9 0.00 0.00 0.00 44 1009.1
20260506011531 25 184 8.0 20.9 0.00 0.00 0.00 42 1008.9
20260506010032 25 148 14.5 30.6 0.00 0.00 0.00 41 1008.7
20260506004527 25 200 14.5 27.4 0.00 0.00 0.00 40 1008.3
20260506003030 25 197 12.9 33.8 0.00 0.00 0.00 39 1008.6
20260506001529 25 202 14.5 25.7 0.00 0.00 0.00 38 1008.5
20260506000030 26 202 16.1 30.6 0.00 0.00 0.00 37 1008.5
20260505234529 26 190 14.5 27.4 0.00 0.00 0.00 36 1008.2
20260505233030 26 212 16.1 33.8 0.00 0.00 0.00 35 1008.0
20260505231531 26 182 22.5 33.8 0.00 0.00 0.00 33 1007.8
20260505230027 27 247 16.1 35.4 0.00 0.00 0.00 32 1007.9
20260505224530 27 198 24.1 35.4 0.00 0.00 0.00 31 1008.4